Regional Weather Roundup
Issued by NWS

Home | Current Version | Previous Version | Graphics & Text | Print | Product List | Glossary On
Versions: 1 2 3 4 5 6 7 8 9 10 11 12 13 14 15 16 17 18 19 20 21 22 23 24 25 26 27 28 29 30 31 32 33 34 35 36 37 38 39 40 41 42 43 44 45 46 47 48 49 50
000
ASUS43 KLOT 280012
RWRIL

ILLINOIS REGIONAL WEATHER ROUNDUP
NATIONAL WEATHER SERVICE CHICAGO/ROMEOVILLE IL
700 PM CDT WED MAY 27 2015

NOTE: "FAIR" INDICATES FEW OR NO CLOUDS BELOW 12,000 FEET WITH NO
SIGNIFICANT WEATHER AND/OR OBSTRUCTIONS TO VISIBILITY.

* THESE STATIONS ARE NOT UNDER NWS QUALITY CONTROL. THEY ALSO MAY NOT
  REPORT WEATHER SUCH AS PRECIPITATION OR FOG.

ILZ001-002-007-009-015-016-024-280100-
NORTHWEST ILLINOIS

CITY           SKY/WX    TMP DP  RH WIND       PRES   REMARKS
MOLINE         SUNNY     77  56  48 W7        30.06R
6HR MIN TEMP:  75; 6HR MAX TEMP:  80;

STERLING*      SUNNY     77  57  50 NW5       30.06S
SAVANNA*       SUNNY     77  58  52 CALM      30.05S
$$

ILZ003-004-008-010-011-017-018-280100-
NORTH CENTRAL ILLINOIS

CITY           SKY/WX    TMP DP  RH WIND       PRES   REMARKS
ROCKFORD       MOSUNNY   75  55  49 W7        30.06S
6HR MIN TEMP:  70; 6HR MAX TEMP:  77;

FREEPORT*      SUNNY     73  57  57 W6        30.07S
ROCHELLE*      SUNNY     74  56  53 NW3       30.06S
DE KALB*       SUNNY     71  53  52 W5        30.07S
PERU*          SUNNY     76  55  48 NW7       30.07R
$$

ILZ005-006-012>014-019>023-280100-
NORTHEAST ILLINOIS

CITY           SKY/WX    TMP DP  RH WIND       PRES   REMARKS
CHICAGO-OHARE  SUNNY     72  56  57 W5        30.04R
6HR MIN TEMP:  67; 6HR MAX TEMP:  74; 6HR PCP: TRACE;

CHICAGO-MIDWAY MOSUNNY   75  54  47 NW8       30.04S
6HR MIN TEMP:  67; 6HR MAX TEMP:  77; 6HR PCP: TRACE;

AURORA         SUNNY     73  54  51 N8        30.06R
6HR MIN TEMP:  70; 6HR MAX TEMP:  76;

LANSING*       MOSUNNY   73  51  46 NW5       30.04S
JOLIET*        SUNNY     74  55  50 N3        30.06R
WAUKEGAN       SUNNY     68  56  65 E3        30.04S
6HR MIN TEMP:  65; 6HR MAX TEMP:  72; 6HR PCP: TRACE;

DUPAGE AIRPORT SUNNY     73  55  53 NW7       30.05R
6HR MIN TEMP:  68; 6HR MAX TEMP:  75; 6HR PCP: TRACE;

KANKAKEE*      SUNNY     75  57  53 NW12      30.06R
WHEELING       SUNNY     73  54  51 NW7       30.06R
6HR MIN TEMP:  64; 6HR MAX TEMP:  74; 6HR PCP:  0.02;

MORRIS*        SUNNY     74  54  48 N3        30.05R
ROMEOVILLE*    SUNNY     73  51  47 N8G23     30.06R
NORTHERLY ISL    N/A     63  56  78 NE1         N/A
$$

LMZ740>746-280100-
SOUTHERN LAKE MICHIGAN

STATION/POSITION SKY/WX   TEMP    WIND        PRES    VSBY  WAVE
                          AIR SEA DIR/SP/G                  HT/PER
                          (F)     (DEG/KT/KT) (MB)    (MI)  (FT/S)
SOUTHERN BUOY              47 38  270/  4/  6 1017.8R         1
HARRISON CRIB              66     350/ 11/ 12   N/A
BURNHAM HARBOR             72      30/  2/ 12   N/A
CALUMET HARBOR             70     360/  4/  9   N/A
BURNS HARBOR               63      60/  5/  8 1018.3R
MICHIGAN CITY              63     360/  2/  3   N/A
MICHIGAN CITY 6N           56 53  180/  2/  2   N/A           1/ 3
ST. JOSEPH                 58 56  300/  4/  4   N/A           1/ 3
$$

ILZ025>027-034>036-040-047-049-050-058-095>099-280100-
WEST-CENTRAL ILLINOIS

CITY           SKY/WX    TMP DP  RH WIND       PRES   REMARKS
QUINCY         SUNNY     76  56  49 N5        30.07F
GALESBURG*     SUNNY     77  55  46 NW6       30.07F
MACOMB*        SUNNY     77  55  45 N5        30.09S
JACKSONVILLE*  SUNNY     78  58  50 N6        30.08S
PITTSFIELD*    SUNNY     77  57  50 CALM      30.09S
$$

ILZ028>032-037-038-041>044-048-051>054-059>061-280100-
CENTRAL ILLINOIS

CITY           SKY/WX    TMP DP  RH WIND       PRES   REMARKS
PONTIAC        SUNNY     76  56  50 NW12      30.07R
BLOOMINGTON    SUNNY     77  56  48 NW13      30.08R
DECATUR        SUNNY     76  57  51 NW10      30.08R
PEORIA         SUNNY     80  55  42 VRB3      30.06S HX  80
6HR MIN TEMP:  75; 6HR MAX TEMP:  82;

LACON*         SUNNY     76  56  50 N5        30.06R
LINCOLN*       SUNNY     78  56  46 N6        30.05R
SPRINGFIELD    SUNNY     79  57  46 NW7       30.08R HX  80
6HR MIN TEMP:  78; 6HR MAX TEMP:  81;

TAYLORVILLE    MOSUNNY   73  59  60 NW6       30.08R
$$

ILZ033-039-045-046-055>057-062-063-280100-
EAST-CENTRAL ILLINOIS

CITY           SKY/WX    TMP DP  RH WIND       PRES   REMARKS
CHAMPAIGN      SUNNY     77  57  50 NW9       30.07R
DANVILLE*      SUNNY     76  59  54 W9        30.03S
RANTOUL*       SUNNY     79  56  44 NW12      30.07R HX  80
PARIS*         MOSUNNY   80  56  43 NW12      30.06S HX  80
$$

ILZ079-100>102-280100-
SOUTHWEST ILLINOIS

CITY           SKY/WX    TMP DP  RH WIND       PRES   REMARKS
ALTON          MOSUNNY   79  59  50 NW9       30.07R HX  80
BELLEVILLE     SUNNY     80  61  51 VRB5      30.05R HX  81
CAHOKIA*       MOSUNNY   80  57  45 NW9       30.06R HX  80
SPARTA*        MOSUNNY   79  66  66 W3        30.06S HX  81
$$

ILZ064>066-069>071-074>076-080>082-084>086-088>090-092>094-280100-
SOUTH-CENTRAL ILLINOIS

CITY           SKY/WX    TMP DP  RH WIND       PRES   REMARKS
CARBONDALE     PTSUNNY   78  68  71 S8        30.07R HX  80
6HR MIN TEMP:  77; 6HR MAX TEMP:  82;

CAIRO*         CLOUDY    75  69  81 S6        30.08S
EFFINGHAM*     MOSUNNY   79  54  42 W10       30.08R
MARION         CLOUDY    79  70  73 SW7       30.07S HX  81
MT. VERNON     PTSUNNY   81  63  54 W3        30.07R HX  82
CENTRALIA*     MOSUNNY   78  62  58 W6        30.06R
SALEM*         MOSUNNY   80  63  56 CALM      30.07R HX  81
METROPOLIS*    CLOUDY    74  67  79 CALM      30.09R
$$

ILZ067-068-072-073-078-083-087-091-280100-
SOUTHEAST ILLINOIS

CITY           SKY/WX    TMP DP  RH WIND       PRES   REMARKS
LAWRENCEVILLE  CLOUDY    80  62  54 SW9       30.06S HX  81
FLORA*         CLOUDY    79  59  49 SW9       30.07R HX  80
FAIRFIELD*     CLOUDY    80  63  56 SW6       30.05S HX  81
HARRISBURG*    CLOUDY    76  66  71 S10       30.09R
ROBINSON*      PTSUNNY   80  56  43 SW8       30.06S HX  80
CARMI*         CLOUDY    79  61  53 S9        30.07R HX  80
$$

ABBREVIATIONS USED IN REMARKS
   TC - TEMPERATURE IN CELSIUS
  WCI - WIND CHILL INDEX
   HX - HEAT INDEX
  VSB - VISIBILITY
$$




USA.gov is the U.S. government's official web portal to all federal, state and local government web resources and services.